Regional Weather Roundup
Issued by NWS

Home | Current Version | Previous Version | Graphics & Text | Print | Product List | Glossary On
Versions: 1 2 3 4 5 6 7 8 9 10 11 12 13 14 15 16 17 18 19 20 21 22 23 24 25 26 27 28 29 30 31 32 33 34 35 36 37 38 39 40 41 42 43 44 45 46 47 48 49 50
000
ASUS43 KLOT 241208
RWRIL

ILLINOIS REGIONAL WEATHER ROUNDUP
NATIONAL WEATHER SERVICE CHICAGO/ROMEOVILLE IL
700 AM CDT TUE APR 24 2018

NOTE: "FAIR" INDICATES FEW OR NO CLOUDS BELOW 12,000 FEET WITH NO
SIGNIFICANT WEATHER AND/OR OBSTRUCTIONS TO VISIBILITY.

* THESE STATIONS ARE NOT UNDER NWS QUALITY CONTROL. THEY ALSO MAY NOT
  REPORT WEATHER SUCH AS PRECIPITATION OR FOG.

ILZ001-002-007-009-015-016-024-241300-
NORTHWEST ILLINOIS

CITY           SKY/WX    TMP DP  RH WIND       PRES   REMARKS
MOLINE         FAIR      45  35  68 CALM      30.08R
6HR MIN TEMP:  44; 6HR MAX TEMP:  55;

STERLING*      MOCLDY    50  32  50 N6        30.08S
SAVANNA*       FAIR      44  36  74 CALM      30.09S
$$

ILZ003-004-008-010-011-017-018-241300-
NORTH CENTRAL ILLINOIS

CITY           SKY/WX    TMP DP  RH WIND       PRES   REMARKS
ROCKFORD       CLOUDY    49  30  48 N5        30.10R
6HR MIN TEMP:  48; 6HR MAX TEMP:  52;

FREEPORT*      FAIR      45  32  60 NW3       30.10F
ROCHELLE*      CLOUDY    50  31  48 N7        30.08R
DE KALB*       CLOUDY    49  32  51 N8        30.07S
PERU*          CLOUDY    53  42  67 N5        30.07R
$$

ILZ005-006-012>014-019>023-241300-
NORTHEAST ILLINOIS

CITY           SKY/WX    TMP DP  RH WIND       PRES   REMARKS
CHICAGO-OHARE  LGT RAIN  49  37  63 N6        30.06R
6HR MIN TEMP:  48; 6HR MAX TEMP:  50; 6HR PCP: TRACE;

CHICAGO-MIDWAY CLOUDY    51  40  65 NE6       30.07R
6HR MIN TEMP:  50; 6HR MAX TEMP:  53; 6HR PCP: TRACE;

AURORA         LGT RAIN  49  39  68 NE3       30.06R
6HR MIN TEMP:  49; 6HR MAX TEMP:  52; 6HR PCP: TRACE;

LANSING*       CLOUDY    46  44  96 N5        30.05S FOG
JOLIET*        RAIN      52  45  79 NE3       30.06S
WAUKEGAN       CLOUDY    47  34  60 CALM      30.07R
6HR MIN TEMP:  45; 6HR MAX TEMP:  47;

DUPAGE AIRPORT LGT RAIN  47  41  80 N5        30.06R
6HR MIN TEMP:  47; 6HR MAX TEMP:  51; 6HR PCP: TRACE;

KANKAKEE*      CLOUDY    48  47  97 NE5       30.05R FOG
WHEELING       CLOUDY    48  34  58 N3        30.09R
6HR MIN TEMP:  47; 6HR MAX TEMP:  50;

MORRIS*        CLOUDY    48  45  88 CALM      30.05R
ROMEOVILLE*    CLOUDY    50  43  76 NE6       30.06R
NORTHERLY ISL    N/A     44  37  76 NW5         N/A
$$

LMZ740>746-241300-
SOUTHERN LAKE MICHIGAN

STATION/POSITION SKY/WX   TEMP    WIND        PRES    VSBY  WAVE
                          AIR SEA DIR/SP/G                  HT/PER
                          (F)     (DEG/KT/KT) (MB)    (MI)  (FT/S)
HARRISON CRIB              41     340/  6/  7   N/A
BURNHAM HARBOR             45     340/  5/  8   N/A
CALUMET HARBOR             42     330/  6/  8 1017.5R
BURNS HARBOR               42      30/  3/  5 1018.3S
MICHIGAN CITY              45      50/  7/  8   N/A
ST. JOSEPH                 45 42  130/  4/  6 1018.6          1/ 4
$$

ILZ025>027-034>036-040-047-049-050-058-095>099-241300-
WEST-CENTRAL ILLINOIS

CITY           SKY/WX    TMP DP  RH WIND       PRES   REMARKS
QUINCY         CLOUDY    53  50  89 N10       30.06R
GALESBURG*     CLOUDY    53  40  61 N7        30.08S
MACOMB*        CLOUDY    50  45  82 N9        30.10R
JACKSONVILLE*  CLOUDY    52  51  96 N8        30.05R FOG
PITTSFIELD*    CLOUDY    55  54  97 N7        30.05S FOG
$$

ILZ028>032-037-038-041>044-048-051>054-059>061-241300-
CENTRAL ILLINOIS

CITY           SKY/WX    TMP DP  RH WIND       PRES   REMARKS
PONTIAC        FOG       50  50  99 NE6       30.05R VSB 1
BLOOMINGTON    CLOUDY    50  50 100 NE9       30.04R FOG
DECATUR        CLOUDY    52  51  97 NE9       30.01R
PEORIA         CLOUDY    51  46  83 NE3       30.06R
6HR MIN TEMP:  51; 6HR MAX TEMP:  53; 6HR PCP: TRACE;

LACON*         CLOUDY    50  40  69 CALM      30.06R
LINCOLN*       CLOUDY    53  53 100 N7        30.04R FOG
SPRINGFIELD    CLOUDY    53  53 100 N10       30.03R FOG
6HR MIN TEMP:  54; 6HR MAX TEMP:  56; 6HR PCP: TRACE;

TAYLORVILLE    CLOUDY    53  53 100 N8        30.02R FOG
6HR MIN TEMP:  53; 6HR MAX TEMP:  54; 6HR PCP:  0.05;

$$

ILZ033-039-045-046-055>057-062-063-241300-
EAST-CENTRAL ILLINOIS

CITY           SKY/WX    TMP DP  RH WIND       PRES   REMARKS
CHAMPAIGN      CLOUDY    52  50  93 NE8       30.01R
DANVILLE*      CLOUDY    50  50 100 N6        29.98R
RANTOUL*       CLOUDY    53  52  98 NE8       30.01S
MATTOON        CLOUDY    52  51  97 NE6       29.98R FOG
PARIS*         CLOUDY    51  50  96 NE6       29.99S
$$

ILZ079-100>102-241300-
SOUTHWEST ILLINOIS

CITY           SKY/WX    TMP DP  RH WIND       PRES   REMARKS
ALTON          CLOUDY    54  54 100 N12       30.01R FOG
BELLEVILLE     CLOUDY    55  54  97 NW10      29.98R FOG
CAHOKIA*       CLOUDY    56  53  90 N12       30.00R FOG
SPARTA*        CLOUDY    54  54 100 NW8       29.99R FOG
$$

ILZ064>066-069>071-074>076-080>082-084>086-088>090-092>094-241300-
SOUTH-CENTRAL ILLINOIS

CITY           SKY/WX    TMP DP  RH WIND       PRES   REMARKS
CARBONDALE     CLOUDY    57  55  93 N5        29.96R FOG
6HR MIN TEMP:  54; 6HR MAX TEMP:  57;

CAIRO*         CLOUDY    56  55  99 N5        29.95R FOG
EFFINGHAM*     CLOUDY    53  53 100 N3        30.00R
MARION         CLOUDY    54  54 100 N6        29.97R FOG
MT. VERNON     CLOUDY    54  53  97 N3        29.97R
CENTRALIA*     RAIN      55  55  97 N5        29.97R
SALEM*         RAIN      55  53  93 NE3       29.97R
METROPOLIS*    CLOUDY    56  55  99 N5        29.95R FOG
$$

ILZ067-068-072-073-078-083-087-091-241300-
SOUTHEAST ILLINOIS

CITY           SKY/WX    TMP DP  RH WIND       PRES   REMARKS
LAWRENCEVILLE  CLOUDY    54  52  93 MISG      29.96R
FLORA*         CLOUDY    54  52  94 N5        29.97R
FAIRFIELD*     CLOUDY    53  52  99 N3        29.95R
HARRISBURG*    CLOUDY    55  55 100 N5        29.96R FOG
ROBINSON*      CLOUDY    52  51  97 N7        29.97R
CARMI*         LGT RAIN  54  53  99 N6        29.95R
$$

ABBREVIATIONS USED IN REMARKS
   TC - TEMPERATURE IN CELSIUS
  WCI - WIND CHILL INDEX
   HX - HEAT INDEX
  VSB - VISIBILITY
$$




USA.gov is the U.S. government's official web portal to all federal, state and local government web resources and services.